FW5145 Weather Reports


Display with metric or nautical units.
time (UTC)temp
F
wind
direction
speed
MPH
gust
MPH
rain 1hr
in
rain 24hr
in
rain mn
in
humidity
%
barometer
mb
20260902062533 58 0 0.0 1.0 0.00 0.00 0.00 100 1020.5
20260902062031 58 0 0.0 3.0 0.00 0.00 0.00 100 1020.6
20260902061548 58 0 0.0 3.0 0.00 0.00 0.00 100 1020.5
20260902061037 58 0 0.0 3.0 0.00 0.00 0.00 100 1020.4
20260902060532 58 0 0.0 3.0 0.00 0.00 0.00 100 1020.4
20260902060059 58 0 0.0 2.0 0.00 0.00 0.00 100 1020.3
20260902055533 58 0 0.0 0.0 0.00 0.00 0.00 100 1020.4
20260902055032 58 0 0.0 0.0 0.00 0.00 0.00 100 1020.3
20260902054547 58 0 0.0 0.0 0.00 0.00 0.00 100 1020.2
20260902054039 57 0 0.0 0.0 0.00 0.00 0.00 100 1020.2
20260902053534 57 0 0.0 0.0 0.00 0.00 0.00 100 1020.2
20260902053058 57 0 0.0 0.0 0.00 0.00 0.00 100 1020.1
20260902052532 57 0 0.0 0.0 0.00 0.00 0.00 100 1020.2
20260902052034 57 0 0.0 0.0 0.00 0.00 0.00 100 1020.2
20260902051556 57 0 0.0 0.0 0.00 0.00 0.00 100 1020.3
20260902051034 57 0 0.0 0.0 0.00 0.00 0.00 100 1020.3
20260902050535 57 0 0.0 0.0 0.00 0.00 0.00 100 1020.3
20260902050050 57 0 0.0 0.0 0.00 0.00 0.00 100 1020.2
20260902045531 57 0 0.0 0.0 0.00 0.00 0.00 100 1020.1
20260902045032 57 0 0.0 0.0 0.00 0.00 0.00 100 1020.2
20260902044547 57 0 0.0 0.0 0.00 0.00 0.00 100 1020.3
20260902044032 58 0 0.0 0.0 0.00 0.00 0.00 100 1020.3
20260902043531 58 0 0.0 0.0 0.00 0.00 0.00 100 1020.4
20260902043058 58 0 0.0 0.0 0.00 0.00 0.00 100 1020.4
20260902042531 58 0 0.0 0.0 0.00 0.00 0.00 100 1020.4
20260902042032 58 0 0.0 0.0 0.00 0.00 0.00 100 1020.4
20260902041550 58 0 0.0 0.0 0.00 0.00 0.00 100 1020.3
20260902041031 58 0 0.0 0.0 0.00 0.00 0.00 100 1020.4
20260902040534 58 0 0.0 0.0 0.00 0.00 0.00 100 1020.3
20260902040051 58 0 0.0 0.0 0.00 0.00 0.00 100 1020.3
20260902035531 58 0 0.0 0.0 0.00 0.00 0.00 100 1020.3
20260902035034 58 0 0.0 0.0 0.00 0.00 0.00 100 1020.3
20260902034559 58 0 0.0 0.0 0.00 0.00 0.00 100 1020.3
20260902034031 58 0 0.0 1.0 0.00 0.00 0.00 100 1020.3
20260902033531 59 0 0.0 1.0 0.00 0.00 0.00 100 1020.4
20260902033048 59 0 0.0 1.0 0.00 0.00 0.00 100 1020.3
20260902032532 59 0 0.0 0.0 0.00 0.00 0.00 100 1020.4
20260902032034 59 0 0.0 0.0 0.00 0.00 0.00 100 1020.4
20260902031545 59 0 0.0 0.0 0.00 0.00 0.00 100 1020.5
20260902031031 59 0 0.0 0.0 0.00 0.00 0.00 100 1020.6
20260902030534 59 0 0.0 0.0 0.00 0.00 0.00 100 1020.5
20260902030049 59 0 0.0 1.0 0.00 0.00 0.00 100 1020.5
20260902025532 59 0 0.0 1.0 0.00 0.00 0.00 100 1020.5
20260902025034 59 0 0.0 1.0 0.00 0.00 0.00 100 1020.5
20260902024546 59 0 0.0 1.0 0.00 0.00 0.00 100 1020.5
20260902024034 59 0 0.0 2.0 0.00 0.00 0.00 100 1020.5
20260902023532 59 0 0.0 2.0 0.00 0.00 0.00 100 1020.5
20260902023053 59 0 0.0 2.0 0.00 0.00 0.00 100 1020.6
20260902022535 59 0 0.0 2.0 0.00 0.00 0.00 100 1020.6
20260902022032 59 0 0.0 3.0 0.00 0.00 0.00 100 1020.5
20260902021542 59 0 0.0 3.0 0.00 0.00 0.00 100 1020.5
20260902021035 59 0 0.0 3.0 0.00 0.00 0.00 100 1020.6
20260902020532 59 247 0.0 0.0 0.00 0.00 0.00 100 1020.6
20260902020058 59 0 0.0 0.0 0.00 0.00 0.00 100 1020.7
20260902015531 59 0 0.0 0.0 0.00 0.00 0.00 100 1020.7
20260902015032 59 0 0.0 0.0 0.00 0.00 0.00 100 1020.7
20260902014546 59 0 0.0 0.0 0.00 0.00 0.00 100 1020.7
20260902014033 59 0 0.0 0.0 0.00 0.00 0.00 100 1020.7
20260902013534 59 0 0.0 0.0 0.00 0.00 0.00 100 1020.8
20260902013044 59 0 0.0 1.0 0.00 0.00 0.00 100 1020.8
20260902012531 59 0 0.0 1.0 0.00 0.00 0.00 100 1020.7
20260902012032 59 0 0.0 1.0 0.00 0.00 0.00 100 1020.8
20260902011544 59 0 0.0 2.0 0.00 0.00 0.00 100 1020.7
20260902011032 59 0 0.0 3.0 0.00 0.00 0.00 100 1020.8
20260902010531 59 242 0.0 3.0 0.00 0.00 0.00 100 1020.9
20260902010057 59 0 0.0 3.0 0.00 0.00 0.00 100 1020.8
20260902005532 59 0 0.0 0.0 0.00 0.00 0.00 100 1020.7
20260902005034 59 0 0.0 0.0 0.00 0.00 0.00 100 1020.9
20260902004554 59 0 0.0 0.0 0.00 0.00 0.00 100 1020.9
20260902004038 59 0 0.0 0.0 0.00 0.00 0.00 100 1020.9
20260902003535 59 0 0.0 0.0 0.00 0.00 0.00 100 1020.8
20260902003052 59 0 0.0 0.0 0.00 0.00 0.00 100 1020.9
20260902002531 59 0 0.0 0.0 0.00 0.00 0.00 100 1020.9
20260902002033 59 0 0.0 0.0 0.00 0.00 0.00 100 1020.8
20260902001554 59 0 0.0 0.0 0.00 0.00 0.00 100 1020.8
20260902001031 59 0 0.0 0.0 0.00 0.00 0.00 100 1020.9
20260902000531 59 0 0.0 0.0 0.00 0.00 0.00 100 1021.0
20260902000045 59 0 0.0 0.0 0.00 0.00 0.00 100 1021.1
20260901235534 59 0 0.0 0.0 0.00 0.00 0.00 100 1021.3
20260901235033 59 0 0.0 0.0 0.00 0.00 0.00 100 1021.0
20260901234604 59 0 0.0 0.0 0.00 0.00 0.00 100 1021.1
20260901234032 59 0 0.0 0.0 0.00 0.00 0.00 100 1021.1
20260901233531 59 0 0.0 0.0 0.00 0.00 0.00 100 1021.0
20260901233058 59 0 0.0 0.0 0.00 0.00 0.00 100 1021.1
20260901232532 60 0 0.0 0.0 0.00 0.00 0.00 100 1021.0
20260901232032 60 0 0.0 0.0 0.00 0.00 0.00 100 1020.9
20260901231549 60 0 0.0 0.0 0.00 0.00 0.00 100 1021.0
20260901231032 60 0 0.0 0.0 0.00 0.00 0.00 100 1021.1
20260901230533 60 0 0.0 0.0 0.00 0.00 0.00 100 1021.2
20260901230054 60 0 0.0 0.0 0.00 0.00 0.00 100 1021.1
20260901225532 60 0 0.0 0.0 0.00 0.00 0.00 100 1021.1
20260901225034 60 0 0.0 0.0 0.00 0.00 0.00 100 1021.1
20260901224600 60 0 0.0 0.0 0.00 0.00 0.00 100 1021.2
20260901224035 60 0 0.0 0.0 0.00 0.00 0.00 100 1021.2
20260901223531 60 0 0.0 0.0 0.00 0.00 0.00 100 1021.3
20260901223048 60 0 0.0 0.0 0.00 0.00 0.00 100 1021.3
20260901222531 60 0 0.0 0.0 0.00 0.00 0.00 100 1021.3
20260901222033 60 0 0.0 0.0 0.00 0.00 0.00 100 1021.1
20260901221554 60 0 0.0 0.0 0.00 0.00 0.00 100 1021.2
20260901221032 60 0 0.0 3.0 0.00 0.00 0.00 100 1021.2
20260901220531 60 0 0.0 3.0 0.00 0.00 0.00 100 1021.2
20260901220114 60 0 0.0 3.0 0.00 0.00 0.00 100 1021.3
20260901215531 60 0 0.0 2.0 0.00 0.00 0.00 100 1021.4
20260901215034 60 0 0.0 7.0 0.00 0.00 0.00 100 1021.4
20260901214551 60 0 0.0 7.0 0.00 0.00 0.00 100 1021.5
20260901214032 60 232 0.0 4.0 0.00 0.00 0.00 100 1021.5
20260901213536 60 0 0.0 6.0 0.00 0.00 0.00 100 1021.4
20260901213058 60 0 1.0 6.0 0.00 0.00 0.00 100 1021.5
20260901212535 60 234 0.0 3.0 0.00 0.00 0.00 100 1021.5
20260901212036 60 186 0.0 3.0 0.00 0.00 0.00 100 1021.4
20260901211544 60 0 0.0 4.0 0.00 0.00 0.00 100 1021.4
20260901211031 60 199 0.0 4.0 0.00 0.00 0.00 100 1021.3
20260901210534 60 0 0.0 3.0 0.00 0.00 0.00 100 1021.4
20260901210053 60 0 0.0 2.0 0.00 0.00 0.00 100 1021.3
20260901205533 60 0 0.0 2.0 0.00 0.00 0.00 100 1021.4
20260901205035 60 0 0.0 1.0 0.00 0.00 0.00 100 1021.3
20260901204547 60 0 0.0 1.0 0.00 0.00 0.00 100 1021.3
20260901204032 60 0 0.0 2.0 0.00 0.00 0.00 100 1021.3
20260901203533 60 0 0.0 2.0 0.00 0.00 0.00 100 1021.3
20260901203054 60 0 0.0 0.0 0.00 0.00 0.00 100 1021.3
20260901202532 60 0 0.0 0.0 0.00 0.00 0.00 100 1021.2
20260901202032 60 0 0.0 0.0 0.00 0.00 0.00 100 1021.3
20260901201557 60 0 0.0 2.0 0.00 0.00 0.00 100 1021.4
20260901201033 60 0 0.0 2.0 0.00 0.00 0.00 100 1021.3
20260901200534 61 239 0.0 2.0 0.00 0.00 0.00 100 1021.4
20260901200051 61 0 0.0 2.0 0.00 0.00 0.00 100 1021.3
20260901195533 61 0 0.0 3.0 0.00 0.00 0.00 100 1021.2
20260901195032 61 0 0.0 4.0 0.00 0.00 0.00 100 1021.2
20260901194556 61 257 0.0 4.0 0.00 0.00 0.00 100 1021.4
20260901194032 61 242 0.0 1.0 0.00 0.00 0.00 100 1021.3
20260901193533 61 0 0.0 1.0 0.00 0.00 0.00 100 1021.3
20260901193104 61 0 0.0 3.0 0.00 0.00 0.00 100 1021.3
20260901192532 61 0 0.0 3.0 0.00 0.00 0.00 100 1021.3
20260901192032 62 0 0.0 0.0 0.00 0.00 0.00 100 1021.2
20260901191547 62 0 0.0 0.0 0.00 0.00 0.00 100 1021.2
20260901191035 62 0 0.0 0.0 0.00 0.00 0.00 100 1021.0
20260901190534 62 0 0.0 0.0 0.00 0.00 0.00 100 1021.0
20260901190055 62 0 0.0 1.0 0.00 0.00 0.00 100 1021.0
20260901185533 63 0 0.0 1.0 0.00 0.00 0.00 100 1020.8
20260901185033 63 0 0.0 3.0 0.00 0.00 0.00 100 1020.8
20260901184558 63 0 0.0 8.0 0.00 0.00 0.00 100 1020.9
20260901184033 63 242 1.0 8.0 0.00 0.00 0.00 100 1021.0
20260901183533 63 0 0.0 6.0 0.00 0.00 0.00 100 1021.0
20260901183049 64 249 1.0 6.0 0.00 0.00 0.00 100 1021.1
20260901182533 64 0 0.0 3.0 0.00 0.00 0.00 100 1021.0
20260901182033 64 0 0.0 5.0 0.00 0.00 0.00 100 1020.9
20260901181547 64 0 0.0 5.0 0.00 0.00 0.00 100 1020.8
20260901181033 64 252 1.0 10.0 0.00 0.00 0.00 100 1020.8
20260901180534 65 198 1.0 11.0 0.00 0.00 0.00 100 1020.8
20260901180055 65 215 3.0 11.0 0.00 0.00 0.00 100 1020.8
20260901175532 65 149 1.0 11.0 0.00 0.00 0.00 100 1020.8
20260901175032 65 231 3.0 11.0 0.00 0.00 0.00 100 1020.8
20260901174552 66 261 4.0 11.0 0.00 0.00 0.00 100 1020.9
20260901174033 66 249 1.0 7.0 0.00 0.00 0.00 100 1020.7
20260901173538 66 227 1.0 7.0 0.00 0.00 0.00 100 1020.7
20260901173048 67 202 1.0 6.0 0.00 0.00 0.00 100 1020.7
20260901172533 67 268 2.0 6.0 0.00 0.00 0.00 100 1020.7
20260901172033 67 163 1.0 7.0 0.00 0.00 0.00 100 1020.8
20260901171557 67 211 1.0 7.0 0.00 0.00 0.00 100 1020.7
20260901171041 67 205 1.0 7.0 0.00 0.00 0.00 100 1020.8
20260901170533 67 261 1.0 8.0 0.00 0.00 0.00 100 1020.7
20260901170117 67 148 2.0 8.0 0.00 0.00 0.00 100 1020.5
20260901165532 67 145 1.0 8.0 0.00 0.00 0.00 100 1020.5
20260901165033 68 121 1.0 8.0 0.00 0.00 0.00 100 1020.5
20260901164554 68 121 2.0 7.0 0.00 0.00 0.00 100 1020.5
20260901164033 68 233 2.0 8.0 0.00 0.00 0.00 100 1020.5
20260901163533 68 218 2.0 8.0 0.00 0.00 0.00 100 1020.3
20260901163050 68 231 1.0 5.0 0.00 0.00 0.00 100 1020.4
20260901162535 67 0 0.0 4.0 0.00 0.00 0.00 100 1020.4
20260901162032 67 171 1.0 4.0 0.00 0.00 0.00 100 1020.5
20260901161600 67 0 0.0 11.0 0.00 0.00 0.00 100 1020.6
20260901161035 67 249 1.0 11.0 0.00 0.00 0.00 100 1020.7
20260901160533 68 96 3.0 11.0 0.00 0.00 0.00 100 1020.7
20260901160056 68 0 1.0 5.0 0.00 0.00 0.00 100 1020.7
20260901155532 68 0 2.0 5.0 0.00 0.00 0.00 100 1020.7
20260901155032 68 270 1.0 6.0 0.00 0.00 0.00 100 1020.8
20260901154602 68 269 2.0 6.0 0.00 0.00 0.00 100 1020.9
20260901154032 69 229 1.0 7.0 0.00 0.00 0.00 100 1021.0
20260901153532 69 240 2.0 7.0 0.00 0.00 0.00 100 1020.9
20260901153053 70 187 2.0 11.0 0.00 0.00 0.00 100 1020.8
20260901152533 70 240 3.0 11.0 0.00 0.00 0.00 100 1020.7
20260901152035 70 249 1.0 7.0 0.00 0.00 0.00 100 1020.8
20260901151555 70 216 2.0 7.0 0.00 0.00 0.00 100 1021.0
20260901151032 70 0 2.0 7.0 0.00 0.00 0.00 100 1020.8
20260901150533 71 242 2.0 7.0 0.00 0.00 0.00 100 1020.8
20260901145534 71 242 1.0 7.0 0.00 0.00 0.00 100 1020.9
20260901145032 70 287 2.0 9.0 0.00 0.00 0.00 100 1020.8
20260901144557 70 273 3.0 9.0 0.00 0.00 0.00 100 1021.0
20260901144036 71 216 3.0 10.0 0.00 0.00 0.00 100 1021.0
20260901143533 71 0 4.0 10.0 0.00 0.00 0.00 100 1020.9
20260901143055 71 217 3.0 9.0 0.00 0.00 0.00 100 1020.9
20260901142532 71 250 2.0 9.0 0.00 0.00 0.00 100 1020.8
20260901142032 70 229 3.0 9.0 0.00 0.00 0.00 100 1020.9
20260901141553 70 266 3.0 9.0 0.00 0.00 0.00 100 1020.9
20260901141032 70 236 2.0 9.0 0.00 0.00 0.00 100 1020.9
20260901140537 69 169 3.0 9.0 0.00 0.00 0.00 100 1021.0
20260901140050 69 242 1.0 9.0 0.00 0.00 0.00 100 1021.0
20260901135537 69 267 1.0 9.0 0.00 0.00 0.00 100 1021.0
20260901135037 69 294 2.0 6.0 0.00 0.00 0.00 100 1021.0
20260901134557 68 297 3.0 9.0 0.00 0.00 0.00 100 1021.0
20260901134035 68 252 3.0 9.0 0.00 0.00 0.00 100 1021.1
20260901133536 68 222 2.0 9.0 0.00 0.00 0.00 100 1021.2
20260901133105 68 267 1.0 6.0 0.00 0.00 0.00 100 1021.2
20260901132536 67 186 1.0 7.0 0.00 0.00 0.00 100 1021.2
20260901132036 67 286 2.0 7.0 0.00 0.00 0.00 100 1021.3
20260901131553 67 254 2.0 7.0 0.00 0.00 0.00 100 1021.3
20260901131036 67 264 2.0 7.0 0.00 0.00 0.00 100 1021.4
20260901130536 67 190 2.0 7.0 0.00 0.00 0.00 100 1021.4
20260901130058 68 242 2.0 10.0 0.00 0.00 0.00 100 1021.3
20260901125536 68 244 3.0 10.0 0.00 0.00 0.00 100 1021.3
20260901125033 68 265 2.0 8.0 0.00 0.00 0.00 100 1021.2
20260901124545 68 248 1.0 8.0 0.00 0.00 0.00 100 1021.4
20260901124036 67 201 2.0 8.0 0.00 0.00 0.00 100 1021.3
20260901123536 68 234 1.0 7.0 0.00 0.00 0.00 100 1021.5
20260901123055 68 242 2.0 7.0 0.00 0.00 0.00 100 1021.3
20260901122534 69 346 2.0 7.0 0.00 0.00 0.00 100 1021.4
20260901122036 69 192 3.0 9.0 0.00 0.00 0.00 100 1021.3
20260901121602 68 198 4.0 9.0 0.00 0.00 0.00 100 1021.4
20260901121035 68 261 2.0 9.0 0.00 0.00 0.00 100 1021.4
20260901120534 68 232 2.0 9.0 0.00 0.00 0.00 100 1021.4
20260901120049 67 238 3.0 9.0 0.00 0.00 0.00 100 1021.5
20260901115536 67 211 3.0 9.0 0.00 0.00 0.00 100 1021.4
20260901115036 66 294 2.0 4.0 0.00 0.00 0.00 100 1021.4
20260901114557 66 327 1.0 8.0 0.00 0.00 0.00 100 1021.3
20260901114035 66 256 2.0 8.0 0.00 0.00 0.00 100 1021.5
20260901113536 66 234 1.0 7.0 0.00 0.00 0.00 100 1021.5
20260901113100 66 279 2.0 8.0 0.00 0.00 0.00 100 1021.5
20260901112532 66 240 3.0 8.0 0.00 0.00 0.00 100 1021.4
20260901112032 66 188 3.0 9.0 0.00 0.00 0.00 100 1021.6
20260901111553 66 160 2.0 9.0 0.00 0.00 0.00 100 1021.5
20260901111036 66 227 3.0 8.0 0.00 0.00 0.00 100 1021.4
20260901110534 66 215 3.0 8.0 0.00 0.00 0.00 100 1021.5
20260901110050 66 236 1.0 8.0 0.00 0.00 0.00 100 1021.5
20260901105534 66 223 2.0 6.0 0.00 0.00 0.00 100 1021.6
20260901105032 66 252 1.0 9.0 0.00 0.00 0.00 100 1021.6
20260901104553 65 157 2.0 9.0 0.00 0.00 0.00 100 1021.6
20260901104033 65 238 3.0 10.0 0.00 0.00 0.00 100 1021.8
20260901103532 65 169 3.0 10.0 0.00 0.00 0.00 100 1021.9
20260901103051 64 269 2.0 6.0 0.00 0.00 0.00 100 1021.8
20260901102533 64 298 2.0 8.0 0.00 0.00 0.00 100 1021.8
20260901102033 64 311 2.0 9.0 0.00 0.00 0.00 100 1022.0
20260901101550 64 247 2.0 9.0 0.00 0.00 0.00 100 1021.9
20260901101033 64 318 3.0 9.0 0.00 0.00 0.00 100 1021.9
20260901100533 64 250 3.0 8.0 0.00 0.00 0.00 100 1021.9
20260901095532 63 200 1.0 6.0 0.00 0.00 0.00 100 1021.9
20260901095032 63 161 0.0 6.0 0.00 0.00 0.00 100 1022.1
20260901094551 63 0 2.0 8.0 0.00 0.00 0.00 100 1022.1
20260901094033 62 0 0.0 8.0 0.00 0.00 0.00 100 1022.1
20260901093532 62 0 0.0 1.0 0.00 0.00 0.00 100 1022.2
20260901093048 62 0 0.0 3.0 0.00 0.00 0.00 100 1022.1
20260901092534 62 0 0.0 3.0 0.00 0.00 0.00 100 1022.2
20260901092033 61 0 0.0 4.0 0.00 0.00 0.00 100 1022.1
20260901091555 61 0 0.0 4.0 0.00 0.00 0.00 100 1022.2
20260901091032 61 259 0.0 1.0 0.00 0.00 0.00 100 1022.0
20260901090532 61 0 0.0 3.0 0.00 0.00 0.00 100 1022.0
20260901090053 61 0 0.0 3.0 0.00 0.00 0.00 100 1022.0
20260901085532 60 241 0.0 3.0 0.00 0.00 0.00 100 1021.9
20260901085032 60 0 0.0 4.0 0.00 0.00 0.00 100 1021.9
20260901084559 60 0 1.0 4.0 0.00 0.00 0.00 100 1021.9
20260901084035 59 0 0.0 0.0 0.00 0.00 0.00 100 1022.0
20260901083536 59 0 0.0 1.0 0.00 0.00 0.00 100 1022.0
20260901083057 58 0 0.0 1.0 0.00 0.00 0.00 100 1021.9
20260901082531 58 0 0.0 0.0 0.00 0.00 0.00 100 1021.8
20260901082032 58 0 0.0 0.0 0.00 0.00 0.00 100 1021.8
20260901081556 58 0 0.0 0.0 0.00 0.00 0.00 100 1021.8
20260901081032 58 0 0.0 0.0 0.00 0.00 0.00 100 1021.8
20260901080532 57 0 0.0 2.0 0.00 0.00 0.00 100 1021.6
20260901080053 57 0 0.0 3.0 0.00 0.00 0.00 100 1021.6
20260901075532 57 0 0.0 3.0 0.00 0.00 0.00 100 1021.6
20260901075039 57 0 0.0 4.0 0.00 0.00 0.00 100 1021.6
20260901074555 57 248 0.0 4.0 0.00 0.00 0.00 100 1021.6
20260901074037 57 0 0.0 3.0 0.00 0.00 0.00 100 1021.5
20260901073535 56 0 0.0 4.0 0.00 0.00 0.00 100 1021.6
20260901073053 56 0 0.0 4.0 0.00 0.00 0.00 100 1021.5
20260901072536 56 261 0.0 3.0 0.00 0.00 0.00 100 1021.6
20260901072031 56 269 1.0 4.0 0.00 0.00 0.00 100 1021.5
20260901071550 56 0 0.0 4.0 0.00 0.00 0.00 100 1021.5
20260901071033 56 0 0.0 3.0 0.00 0.00 0.00 100 1021.5
20260901070531 56 0 0.0 3.0 0.00 0.00 0.00 100 1021.5
20260901070058 55 244 0.0 3.0 0.00 0.00 0.00 100 1021.4
20260901065535 55 0 0.0 3.0 0.00 0.00 0.00 100 1021.4
20260901065033 55 250 0.0 3.0 0.00 0.00 0.00 100 1021.3
20260901064555 55 0 0.0 3.0 0.00 0.00 0.00 100 1021.3
20260901064035 55 0 0.0 4.0 0.00 0.00 0.00 100 1021.2
20260901063533 55 246 0.0 4.0 0.00 0.00 0.00 100 1021.2
20260901063113 55 0 0.0 4.0 0.00 0.00 0.00 100 1021.1